SCP
0 0 0 0 0 0 0 0 0 0 0 0 0 0 0 0 0 0 0 0 0 0 0 0 0 0 0 0 0 0 0 0 0 0 0 0 0 0 0 0 0 0 0 0 0 0 0 0 0
0 0 0 0 0 0 0 0 0 0 0 0 0 0 0 0 0 0 0 0 0 0 0 0 0 0 0 0 0 0 0 0 0 0 0 0 0 0 0 0 0 0 0 0 0 0 0 0 0
0 0 0 0 0 0 0 0 0 0 0 0 0 0 0 0 0 0 0 0 0 0 0 0 0 0 0 0 0 0 0 0 0 0 0 0 0 0 0 0 0 0 0 0 0 0 0 0 0
0 0 0 0 0 0 0 0 0 0 0 0 0 0 0 0 0 0 0 0 0 0 0 0 0 0 0 0 0 0 0 0 0 0 0 0 0 0 0 0 0 0 0 0 0 0 0 0 0
0 0 0 0 0 0 0 0 0 0 0 0 0 0 0 0 0 0 0 0 0 0 0 0 0 0 0 0 0 0 0 0 0 0 0 0 0 0 0 0 0 0 0 0 0 0 0 0 0
0 0 0 0 0 0 0 0 0 0 0 0 0 0 0 0 0 0 0 0 0 0 0 0 0 0 0 0 0 0 0 0 0 0 0 0 0 0 0 0 0 0 0 0 0 0 0 0 0
0 0 0 0 0 0 0 0 0 0 0 0 0 0 0 0 0 0 0 0 0 0 0 0 0 0 0 0 0 0 0 0 0 0 0 0 0 0 0 0 0 0 0 0 0 0 0 0 0
0 0 0 0 0 0 0 0 0 0 0 0 0 0 0 0 0 0 0 0 0 0 0 0 0 0 0 0 0 0 0 0 0 0 0 0 0 0 0 0 0 0 0 0 0 0 0 0 0
0 0 0 0 0 0 0 0 0 0 0 0 0 0 0 0 0 0 0 0 0 0 0 0 0 0 0 0 0 0 0 0 0 0 0 0 0 0 0 0 0 0 0 0 0 0 0 0 0
0 0 0 0 0 0 0 0 0 0 0 0 0 0 0 0 0 0 0 0 0 0 0 0 0 0 0 0 0 0 0 0 0 0 0 0 0 0 0 0 0 0 0 0 0 0 0 0 0
0 0 0 0 0 0 0 0 0 0 0 0 0 0 0 0 0 0 0 0 0 0 0 0 0 0 0 0 0 0 0 0 0 0 0 0 0 0 0 0 0 0 0 0 0 0 0 0 0
0 0 0 0 0 0 0 0 0 0 0 0 0 0 0 0 0 0 0 0 0 0 0 0 0 0 0 0 0 0 0 0 0 0 0 0 0 0 0 0 0 0 0 0 0 0 0 0 0
0 0 0 0 0 0 0 0 0 0 0 0 0 0 0 0 0 0 0 0 0 0 0 0 0 0 0 0 0 0 0 0 0 0 0 0 0 0 0 0 0 0 0 0 0 0 0 0 0
0 0 0 0 0 0 0 0 0 0 0 0 0 0 0 0 0 0 0 0 0 0 0 0 0 0 0 0 0 0 0 0 0 0 0 0 0 0 0 0 0 0 0 0 0 0 0 0 0
0 0 0 0 0 0 0 0 0 0 0 0 0 0 0 0 0 0 0 0 0 0 0 0 0 0 0 0 0 0 0 0 0 0 0 0 0 0 0 0 0 0 0 0 0 0 0 0 0
0 0 0 0 0 0 0 0 0 0 0 0 0 0 0 0 0 0 0 0 0 0 0 0 0 0 0 1 0 0 0 0 0 0 0 0 0 0 0 0 0 0 0 0 0 0 0 0 0
0 0 0 0 0 0 0 0 0 0 0 0 0 0 0 0 0 0 0 0 0 0 0 0 0 0 0 0 0 0 0 0 0 0 0 0 0 0 0 0 0 0 0 0 0 0 0 0 0
0 0 0 0 0 0 0 0 0 0 0 0 0 0 0 0 0 0 0 0 0 0 0 0 0 0 0 0 0 0 0 0 0 0 0 0 0 0 0 0 0 0 0 0 0 0 0 0 0
0 0 0 0 0 0 0 0 0 0 0 0 0 0 0 0 0 0 0 0 0 0 0 0 0 1 1 0 0 0 0 0 0 0 0 0 0 0 0 0 0 0 0 0 0 0 0 0 0
0 0 0 0 0 0 0 0 0 0 0 0 0 0 0 0 0 0 0 0 0 0 0 0 0 1 1 1 1 0 0 0 0 0 0 0 0 0 0 0 0 0 0 0 0 0 0 0 0
0 0 0 0 0 0 0 0 0 0 0 0 0 0 0 0 0 0 0 0 0 0 0 0 0 0 1 1 0 0 0 0 0 0 0 0 0 0 0 0 0 0 0 0 0 0 0 0 0
0 0 0 0 0 0 0 0 0 0 0 0 0 0 0 0 0 0 0 0 0 0 0 0 0 0 0 0 0 0 0 0 0 0 0 0 0 0 0 0 0 0 0 0 0 0 0 0 0
0 0 0 0 0 0 0 0 0 0 0 0 0 0 0 0 0 0 0 0 0 0 0 0 0 0 0 0 0 0 0 0 0 0 0 0 0 0 0 0 0 0 0 0 0 0 0 0 0
0 0 0 0 0 0 0 0 0 0 0 0 0 0 0 0 0 0 0 0 0 0 0 0 0 0 0 0 0 0 0 0 0 0 0 0 0 0 0 0 0 0 0 0 0 0 0 0 0
0 0 0 0 0 0 0 0 0 0 0 0 0 0 0 0 0 0 0 0 0 0 0 0 0 0 0 0 0 0 0 0 0 0 0 0 0 0 0 0 0 0 0 0 0 0 0 0 0
0 0 0 0 0 0 0 0 0 0 0 0 0 0 0 0 0 0 0 0 0 0 0 0 0 0 0 0 0 0 0 0 0 0 0 0 0 0 0 0 0 0 0 0 0 0 0 0 0
0 0 0 0 0 0 0 0 0 0 0 0 0 0 0 0 0 0 0 0 0 0 0 0 0 0 0 0 0 0 0 0 0 0 0 0 0 0 0 0 0 0 0 0 0 0 0 0 0
0 0 0 0 0 0 0 0 0 0 0 0 0 0 0 0 0 0 0 0 0 0 0 0 0 0 0 0 0 0 0 0 0 0 0 0 0 0 0 0 0 0 0 0 0 0 0 0 0
0 0 0 0 0 0 0 0 0 0 0 0 0 0 0 0 0 0 0 0 0 0 0 0 0 0 0 0 0 0 0 0 0 0 0 0 0 0 0 0 0 0 0 0 0 0 0 0 0
0 0 0 0 0 0 0 0 0 0 0 0 0 0 0 0 0 0 0 0 0 0 0 0 0 0 0 0 0 0 0 0 0 0 0 0 0 0 0 0 0 0 0 0 0 0 0 0 0
Wind_Speed
6 3 3 5 7 6 2 2 4 3 3 1 4 9 8 4 2 3 3 9 12 11 9 9 11 13 13 13 13 13 13 13 13 13 14 14 15 17 18 18 18 18 18 18 18 18 19 19 19
2 3 6 6 6 3 1 2 4 2 4 3 5 7 6 2 2 6 6 9 13 11 9 9 12 13 14 13 13 13 13 13 13 13 14 14 15 17 18 18 18 18 18 18 18 18 18 18 19
2 4 5 5 4 5 5 4 5 2 2 3 4 5 5 4 5 6 7 13 12 10 8 10 13 14 14 14 13 13 13 13 13 13 14 15 16 17 17 17 17 17 17 17 17 17 17 18 18
4 5 6 5 2 3 7 6 6 5 2 3 5 5 2 1 5 7 12 13 12 10 9 11 13 14 15 14 14 13 13 13 13 13 14 15 16 16 16 17 16 16 16 17 17 17 17 17 18
5 5 5 3 0 0 3 6 7 6 5 3 5 5 1 4 4 12 13 13 12 9 9 10 13 13 14 14 14 14 14 13 13 14 14 15 15 15 16 16 16 16 16 16 16 16 16 16 17
5 5 5 1 2 2 3 5 6 5 4 3 6 6 1 1 8 12 12 11 11 11 9 9 12 13 13 13 14 14 14 14 14 14 14 14 14 15 16 16 16 16 16 16 16 16 16 17 17
5 5 4 3 3 2 4 6 8 6 5 5 8 6 2 2 5 8 10 10 10 10 9 8 8 10 12 12 12 12 12 13 13 13 13 13 13 14 15 15 15 16 15 15 15 16 16 17 17
5 5 2 2 4 4 3 4 5 8 5 3 6 9 7 7 6 7 8 9 10 9 9 9 7 7 7 8 12 12 12 11 12 12 11 12 12 13 12 11 14 15 15 15 15 16 16 17 17
5 5 1 1 4 5 4 3 2 3 5 3 2 5 7 9 8 8 7 6 8 9 9 9 9 7 7 7 10 10 11 11 11 10 12 10 6 7 7 9 13 14 14 15 15 15 16 15 15
5 4 4 2 3 6 5 5 7 5 3 2 2 2 5 9 10 11 9 11 12 12 10 10 10 9 8 7 7 5 6 7 6 6 7 5 5 5 6 10 11 12 12 13 14 14 13 10 6
5 6 4 1 1 4 4 4 4 10 5 7 9 8 10 9 10 11 11 11 12 12 11 11 11 10 9 6 6 4 4 4 5 7 7 6 5 4 4 4 5 6 8 5 7 7 4 5 5
4 2 3 3 1 3 4 4 4 6 8 7 11 14 14 14 15 16 14 11 10 10 12 12 11 11 10 8 7 7 6 5 5 6 8 6 5 4 4 3 4 3 3 4 4 4 5 6 6
3 2 3 3 3 2 2 2 3 6 5 1 8 13 15 16 15 13 11 9 9 11 12 12 12 12 11 9 8 8 8 7 7 7 7 8 7 7 5 4 4 4 3 4 4 5 6 6 6
3 3 3 2 2 1 2 1 2 7 4 5 9 14 15 16 15 10 9 11 12 13 13 12 13 13 12 11 9 9 9 8 8 8 9 10 7 7 7 6 5 4 4 4 4 6 6 5 5
3 4 1 2 2 2 2 4 6 6 3 6 8 11 12 13 11 13 14 16 16 13 12 12 13 12 13 13 12 9 9 9 9 9 10 11 10 10 9 8 7 5 5 6 5 6 5 5 5
4 3 2 4 3 2 4 7 7 4 5 8 8 8 9 11 12 14 14 14 13 11 11 13 11 12 14 12 11 8 9 10 9 9 10 13 12 12 10 8 8 7 7 6 7 6 5 5 4
2 2 4 4 4 3 5 7 7 4 2 6 7 8 9 10 11 13 13 15 14 14 13 13 13 14 14 12 10 8 8 9 9 9 10 12 13 13 11 9 8 9 7 6 8 6 6 6 6
6 4 4 5 4 5 5 8 9 7 4 6 8 8 9 11 15 13 14 15 14 14 14 14 14 13 11 8 6 6 7 8 8 9 11 13 12 14 12 9 10 11 8 7 8 8 5 6 7
7 5 3 3 2 5 6 9 11 9 6 9 10 10 12 14 13 9 11 12 11 12 13 15 15 14 11 8 9 9 10 8 7 8 11 13 13 14 13 9 11 11 11 12 11 7 9 5 6
2 2 2 1 1 2 4 10 10 9 9 11 11 12 13 12 10 9 9 9 12 13 14 14 15 14 13 12 9 6 5 4 5 5 8 12 13 14 12 12 11 12 10 11 12 10 8 5 8
5 5 5 3 0 1 3 9 7 7 5 7 9 10 10 12 13 10 8 9 10 12 14 14 15 15 13 11 5 3 2 2 4 6 8 10 11 13 13 14 12 12 12 13 14 15 14 10 10
5 5 5 4 2 3 0 6 8 6 8 8 9 8 10 9 8 7 6 7 9 12 10 11 11 11 11 10 9 10 9 10 10 6 5 6 8 10 12 13 14 14 12 13 14 16 12 12 12
6 2 3 2 3 1 1 3 10 5 6 11 11 9 7 5 4 5 5 6 6 6 6 7 7 8 9 10 11 11 11 9 4 4 5 6 6 8 10 11 13 13 13 14 15 15 14 11 11
7 7 8 6 5 3 5 6 10 6 9 8 7 5 3 1 1 2 2 2 2 0 2 4 6 6 7 9 10 11 12 9 7 6 6 6 5 7 9 10 11 12 12 13 14 16 17 15 13
6 7 3 2 2 8 3 5 11 10 8 7 7 4 1 2 2 2 3 3 3 1 1 2 4 5 6 7 9 10 10 10 11 9 8 7 6 7 10 10 11 11 12 12 13 15 15 17 15
7 10 10 8 7 6 3 9 11 8 6 5 3 0 3 3 2 2 2 2 2 1 0 2 3 4 5 6 7 7 8 7 7 9 8 9 8 8 9 11 11 11 11 12 12 13 14 14 16
8 6 7 7 3 2 7 8 10 5 3 2 1 3 3 2 2 2 3 2 2 2 1 2 3 3 4 5 5 6 7 7 8 7 7 7 7 6 8 10 11 11 11 12 12 12 14 13 15
8 10 6 6 6 6 7 6 6 4 6 3 1 3 3 2 3 3 3 2 2 2 2 1 3 4 4 4 5 5 6 7 7 6 8 8 7 7 8 10 11 11 11 11 12 11 11 14 14
7 6 6 6 6 8 6 9 8 9 6 3 2 2 2 2 2 3 4 3 3 2 2 2 2 3 3 4 5 5 6 6 6 7 8 8 7 8 9 10 11 11 12 11 12 12 11 14 14
7 9 10 9 7 6 5 10 5 5 3 5 3 2 2 3 3 3 4 4 4 4 3 3 3 4 4 4 4 6 6 5 7 8 8 7 8 8 9 9 10 11 11 11 12 13 12 13 14
Wind_Direction
331 9 72 56 54 53 98 173 154 124 92 83 97 99 104 113 145 153 133 141 136 142 144 137 130 123 117 112 108 104 101 100 98 97 95 95 97 97 96 95 93 91 91 92 91 89 87 87 88
342 42 55 59 82 86 233 173 124 125 156 137 91 95 88 74 90 113 127 146 140 142 142 138 133 129 123 117 112 108 105 103 102 101 99 98 100 100 98 96 95 94 94 94 92 90 87 87 89
359 59 79 72 104 161 175 186 149 131 124 106 78 79 114 139 135 145 153 144 139 140 140 141 139 134 127 121 116 113 110 108 107 105 103 102 101 100 99 98 97 96 96 96 93 89 88 90 91
67 49 57 73 103 207 171 182 160 128 82 78 96 75 78 149 171 153 142 142 139 141 142 147 142 138 132 127 123 120 117 115 113 111 108 105 103 102 101 101 100 99 98 97 93 90 89 92 94
63 78 66 54 207 25 153 172 158 130 139 115 107 109 76 321 141 135 142 144 143 142 145 151 145 142 138 135 131 127 124 121 119 116 113 110 108 107 106 106 104 103 101 98 94 90 90 93 95
60 69 83 117 182 146 175 181 139 125 154 135 115 121 160 310 136 143 145 146 146 146 148 152 149 145 143 140 137 134 132 129 126 124 120 118 115 114 113 111 109 107 105 102 97 94 92 92 93
104 100 141 168 172 187 194 161 139 142 159 174 135 122 176 239 172 147 142 142 144 147 149 150 152 151 148 144 141 139 137 135 133 130 124 120 118 117 115 114 113 112 110 106 101 97 94 93 92
120 103 104 159 174 199 193 138 141 145 172 169 125 144 187 209 185 141 135 141 146 150 154 155 156 153 150 148 147 144 141 139 134 127 122 118 117 116 116 116 118 117 115 111 106 100 96 94 91
88 80 133 210 180 187 195 131 102 119 119 82 79 167 194 160 150 137 135 142 154 161 164 162 161 159 154 153 154 149 144 140 134 130 128 121 115 115 117 124 125 124 121 117 111 104 98 93 89
86 135 209 226 182 175 186 164 153 117 110 110 57 40 125 143 157 162 165 168 171 174 175 170 168 166 162 162 155 152 147 145 141 142 137 128 125 124 125 126 128 127 126 123 115 106 98 91 82
128 176 212 184 98 145 163 178 158 133 181 197 185 174 156 163 173 181 182 179 181 178 178 178 174 172 170 164 162 162 153 152 151 154 148 138 128 125 120 122 124 126 125 112 103 94 87 89 91
147 186 163 154 95 119 158 165 181 177 208 208 186 166 166 176 185 191 191 187 180 181 185 182 178 176 177 171 173 172 167 168 168 170 161 152 148 145 145 142 144 140 125 118 107 104 101 97 96
156 147 128 140 113 110 122 167 202 231 229 178 145 159 178 187 196 201 198 187 182 189 190 186 182 181 180 176 179 180 180 179 177 176 174 167 163 163 160 158 159 154 140 134 127 120 115 111 106
171 146 149 166 141 132 160 296 285 248 202 152 154 178 192 196 199 197 200 201 200 199 195 188 187 186 182 183 185 185 185 184 180 183 184 177 172 169 168 169 173 170 157 146 138 133 125 118 115
106 98 39 213 179 186 123 288 244 251 170 182 191 198 204 211 202 203 205 207 206 204 197 193 191 187 187 189 189 188 189 186 187 189 188 184 179 176 175 176 180 176 158 145 132 124 119 120 118
75 84 260 270 191 173 150 261 271 290 197 212 217 217 220 224 217 217 214 213 211 205 200 200 193 191 192 192 191 191 191 190 192 190 190 190 187 181 178 181 185 174 163 157 151 148 136 131 128
63 158 224 276 191 166 180 242 275 334 176 227 231 227 229 237 237 229 220 215 211 207 203 201 199 197 197 194 191 191 191 194 194 192 193 193 191 186 184 186 183 173 169 166 164 161 149 148 139
193 200 223 240 214 160 203 250 274 290 279 255 248 242 237 237 237 227 220 217 213 209 205 203 202 202 196 189 187 190 196 198 196 197 197 193 193 191 189 186 180 175 172 170 170 164 153 147 142
163 162 197 241 210 169 225 257 271 280 271 255 249 243 242 243 245 237 225 217 211 207 204 203 202 201 191 189 195 200 207 202 202 203 199 196 194 192 191 186 182 182 182 181 172 158 153 145 140
183 184 196 301 16 180 256 269 266 261 247 237 238 241 242 250 261 250 234 216 208 207 206 205 204 199 197 201 200 199 195 197 206 202 203 201 198 194 193 189 186 187 185 179 176 162 159 162 173
208 197 199 197 28 349 309 301 293 282 260 263 249 243 243 239 247 251 240 225 214 212 208 206 205 201 199 193 170 154 150 165 195 210 211 207 202 197 195 194 189 190 189 187 184 180 173 176 191
206 208 180 162 131 281 345 291 287 286 303 289 276 261 249 247 248 252 249 238 222 220 212 208 203 198 193 183 181 183 197 211 215 209 207 203 204 202 199 196 194 193 195 194 191 191 189 179 186
180 116 121 114 144 294 294 244 280 298 275 267 265 263 258 254 248 260 265 253 242 225 208 203 195 194 187 187 192 196 210 218 206 191 199 203 205 209 205 201 199 199 200 200 196 196 197 196 193
128 73 56 49 69 269 218 199 273 243 226 250 266 274 278 331 19 351 335 340 318 249 182 180 184 193 186 190 195 202 211 208 200 201 205 207 208 213 214 209 206 205 206 205 202 200 203 206 206
113 99 51 337 335 249 239 220 249 248 243 248 268 292 347 48 48 9 11 18 20 40 133 163 177 194 190 193 203 208 212 206 210 208 208 207 210 215 216 213 215 213 212 209 205 206 208 210 211
176 151 165 192 221 265 260 231 251 260 273 257 247 109 68 45 14 354 350 359 353 360 121 173 191 206 199 202 211 213 212 211 220 216 212 213 217 216 210 213 220 220 215 213 210 212 213 213 217
153 185 158 131 132 272 261 271 298 288 260 238 127 75 59 35 15 354 348 346 326 309 265 220 212 222 221 218 218 219 216 217 222 219 217 222 221 212 207 211 218 222 220 218 215 219 217 215 217
152 147 121 145 173 234 266 252 238 233 220 229 74 66 53 36 15 356 342 331 323 305 279 248 230 235 237 229 224 225 223 222 223 220 224 226 223 213 208 212 217 221 222 221 221 225 221 220 220
144 162 159 158 168 174 247 260 221 212 208 176 131 101 70 32 360 342 337 337 333 327 306 284 268 260 257 246 240 240 238 230 227 230 232 229 226 216 215 213 216 220 221 220 225 229 224 225 226
183 178 156 168 207 195 211 260 254 196 169 135 120 79 34 21 7 353 348 351 349 337 327 313 294 279 270 261 253 250 248 241 238 240 239 230 229 223 219 215 217 220 220 220 224 230 228 229 229